Location: Ca�n Batista
(41.4099°N, 1.7752°E)
Time: 22:37:03
(UTC+00:00)

Helios 1A Rocket - Pass Details

Date: 03 March 2021
Orbit: 563 x 585 km, 98.3° (Epoch: 19 April)

Event Time Altitude Azimuth Distance (km) Brightness Sun altitude
Rises 19:11:14 0° 174° (S) 2,767 6.3 -16.8°
Reaches altitude 10° 19:13:23 10° 177° (S) 1,871 5.4 -17.2°
Maximum altitude 19:17:24 61° 258° (WSW) 649 3.4 -17.9°
Drops below altitude 10° 19:21:25 10° 340° (NNW) 1,874 5.9 -18.6°
Sets 19:23:35 0° 344° (NNW) 2,773 6.7 -19.0°
